Location: Evansville
(37.9747°N, 87.5558°W)
Time: 19:49:16
(UTC-06:00)

ARIANE 6 FM1 Upper Stage - Pass Details

Date: 13 December 2025
Orbit: 522 x 610 km, 62.0° (Epoch: 13 January)

Event Time Altitude Azimuth Distance (km) Brightness Sun altitude
Rises 05:17:02 0° 178° (S) 2,708 6.4 -19.2°
Reaches altitude 10° 05:19:45 10° 160° (SSE) 1,802 5.7 -18.7°
Maximum altitude 05:22:36 19° 115° (ESE) 1,324 5.5 -18.1°
Drops below altitude 10° 05:25:26 10° 70° (ENE) 1,782 6.0 -17.6°
Sets 05:28:06 0° 52° (NE) 2,665 6.6 -17.1°
